Photometre #852[NE_1.6_Dp] Portglenone_MO AOT

File : 20200928_852.hum

28/09/2020,07:26:39,TEMP=12.4,BA=5.28,STAT.A,ExtBa=12.80
28/09/2020,07:28:11,TEMP=12.7,BA=5.28,STAT.b=11.0
28/09/2020,07:31:16,TEMP=12.5,BA=5.28,STAT.A,ExtBa=12.70
28/09/2020,07:32:48,TEMP=12.8,BA=5.28,STAT.b=11.0
28/09/2020,07:36:40,TEMP=12.5,BA=5.28,STAT.A,ExtBa=12.60
28/09/2020,07:38:12,TEMP=12.8,BA=5.28,STAT.b=11.0
28/09/2020,07:43:07,TEMP=12.5,BA=5.28,STAT.A,ExtBa=12.60
28/09/2020,07:44:39,TEMP=12.8,BA=5.28,STAT.b=11.0
28/09/2020,07:50:58,TEMP=12.5,BA=5.28,STAT.A,ExtBa=12.60
28/09/2020,07:52:30,TEMP=12.8,BA=5.28,STAT.b=11.0
28/09/2020,08:00:43,TEMP=12.5,BA=5.36,STAT.A,ExtBa=12.60
28/09/2020,08:02:15,TEMP=12.8,BA=5.36,STAT.b=11.0
28/09/2020,08:13:11,TEMP=12.6,BA=5.40,STAT.B,ExtBa=12.50
28/09/2020,08:14:43,TEMP=12.9,BA=5.40,STAT.b=11.0
28/09/2020,08:19:14,TEMP=12.7,BA=5.40,STAT.A,ExtBa=12.50
28/09/2020,08:20:46,TEMP=13.0,BA=5.20,STAT.b=11.0
28/09/2020,08:26:03,TEMP=12.8,BA=5.20,STAT.A,ExtBa=12.50
28/09/2020,08:27:35,TEMP=13.1,BA=5.20,STAT.b=11.0
28/09/2020,08:33:50,TEMP=12.9,BA=5.40,STAT.A,ExtBa=12.50
28/09/2020,08:35:23,TEMP=13.1,BA=5.40,STAT.b=11.0
28/09/2020,08:42:48,TEMP=12.9,BA=5.36,STAT.A,ExtBa=12.50
28/09/2020,08:44:21,TEMP=13.2,BA=5.36,STAT.b=11.0
28/09/2020,08:53:18,TEMP=13.0,BA=5.40,STAT.C,ExtBa=12.50
28/09/2020,08:54:51,TEMP=13.3,BA=5.40,STAT.b=11.0
28/09/2020,09:05:48,TEMP=13.1,BA=5.40,STAT.A,ExtBa=12.50
28/09/2020,09:07:21,TEMP=13.4,BA=5.40,STAT.b=11.0
28/09/2020,09:16:59,TEMP=13.2,BA=5.44,STAT.F,ExtBa=12.50
28/09/2020,09:18:32,TEMP=13.6,BA=5.44,STAT.b=11.0
28/09/2020,09:31:58,TEMP=13.4,BA=5.52,STAT.D,ExtBa=12.50
28/09/2020,09:33:30,TEMP=13.7,BA=5.52,STAT.b=11.0
28/09/2020,09:46:58,TEMP=13.4,BA=5.52,STAT.D,ExtBa=12.50
28/09/2020,09:48:30,TEMP=13.7,BA=5.52,STAT.b=11.0
28/09/2020,10:01:58,TEMP=13.5,BA=5.52,STAT.D,ExtBa=12.50
28/09/2020,10:03:30,TEMP=13.8,BA=5.52,STAT.b=11.0
28/09/2020,10:17:00,TEMP=13.9,BA=5.52,STAT.F,ExtBa=12.50
28/09/2020,10:18:32,TEMP=14.3,BA=5.52,STAT.b=11.0
28/09/2020,10:31:58,TEMP=14.6,BA=5.52,STAT.D,ExtBa=12.70
28/09/2020,10:33:29,TEMP=15.0,BA=5.52,STAT.b=11.0
28/09/2020,10:46:58,TEMP=15.5,BA=5.52,STAT.D,ExtBa=13.00
28/09/2020,10:48:30,TEMP=15.9,BA=5.52,STAT.b=11.0
28/09/2020,11:01:59,TEMP=16.1,BA=5.52,STAT.D,ExtBa=13.00
28/09/2020,11:03:30,TEMP=16.4,BA=5.52,STAT.b=11.0
28/09/2020,11:17:00,TEMP=17.1,BA=5.52,STAT.F,ExtBa=13.00
28/09/2020,11:18:31,TEMP=17.4,BA=5.52,STAT.b=11.0
28/09/2020,11:31:58,TEMP=15.0,BA=5.52,STAT.D,ExtBa=13.00
28/09/2020,11:33:30,TEMP=15.3,BA=5.52,STAT.b=11.0
28/09/2020,11:46:59,TEMP=15.9,BA=5.56,STAT.D,ExtBa=13.90
28/09/2020,11:48:29,TEMP=16.4,BA=5.56,STAT.b=11.0
28/09/2020,12:01:59,TEMP=17.4,BA=5.52,STAT.D,ExtBa=14.20
28/09/2020,12:03:29,TEMP=17.9,BA=5.52,STAT.b=11.0
28/09/2020,12:17:01,TEMP=18.7,BA=5.56,STAT.F,ExtBa=13.90
28/09/2020,12:18:31,TEMP=19.0,BA=5.56,STAT.b=11.0
28/09/2020,12:31:59,TEMP=18.4,BA=5.52,STAT.D,ExtBa=13.90
28/09/2020,12:33:29,TEMP=18.6,BA=5.52,STAT.b=11.0
28/09/2020,12:46:59,TEMP=18.3,BA=5.56,STAT.D,ExtBa=14.30
28/09/2020,12:48:30,TEMP=18.8,BA=5.56,STAT.b=11.0
28/09/2020,13:01:59,TEMP=18.6,BA=5.52,STAT.D,ExtBa=14.30
28/09/2020,13:03:31,TEMP=19.1,BA=5.52,STAT.b=11.0
28/09/2020,13:17:01,TEMP=19.5,BA=5.52,STAT.F,ExtBa=13.80
28/09/2020,13:18:32,TEMP=19.7,BA=5.52,STAT.b=11.0
28/09/2020,13:31:59,TEMP=18.0,BA=5.52,STAT.D,ExtBa=13.80
28/09/2020,13:33:31,TEMP=18.2,BA=5.52,STAT.b=12.0
28/09/2020,13:46:59,TEMP=18.5,BA=5.52,STAT.D,ExtBa=14.00
28/09/2020,13:48:30,TEMP=18.8,BA=5.52,STAT.b=11.0
28/09/2020,14:02:00,TEMP=17.9,BA=5.52,STAT.D,ExtBa=13.80
28/09/2020,14:03:31,TEMP=18.1,BA=5.52,STAT.b=11.0
28/09/2020,14:17:01,TEMP=17.8,BA=5.52,STAT.F,ExtBa=14.20
28/09/2020,14:18:33,TEMP=18.3,BA=5.52,STAT.b=11.0
28/09/2020,14:31:59,TEMP=19.0,BA=5.52,STAT.D,ExtBa=14.10
28/09/2020,14:33:31,TEMP=19.3,BA=5.52,STAT.b=11.0
28/09/2020,14:46:59,TEMP=19.2,BA=5.52,STAT.D,ExtBa=14.10
28/09/2020,14:48:31,TEMP=19.5,BA=5.52,STAT.b=11.0
28/09/2020,15:01:59,TEMP=19.0,BA=5.52,STAT.D,ExtBa=14.10
28/09/2020,15:03:31,TEMP=19.3,BA=5.52,STAT.b=11.0
28/09/2020,15:17:01,TEMP=18.9,BA=5.52,STAT.F,ExtBa=14.00
28/09/2020,15:18:33,TEMP=19.2,BA=5.52,STAT.b=11.0
28/09/2020,15:28:11,TEMP=18.6,BA=5.52,STAT.A,ExtBa=14.00
28/09/2020,15:29:44,TEMP=18.9,BA=5.52,STAT.b=11.0
28/09/2020,15:40:41,TEMP=18.3,BA=5.52,STAT.C,ExtBa=14.00
28/09/2020,15:42:13,TEMP=18.7,BA=5.52,STAT.b=11.0
28/09/2020,15:51:11,TEMP=18.5,BA=5.52,STAT.A,ExtBa=14.00
28/09/2020,15:52:43,TEMP=18.9,BA=5.52,STAT.b=11.0
28/09/2020,16:00:09,TEMP=18.5,BA=5.52,STAT.A,ExtBa=13.90
28/09/2020,16:01:41,TEMP=18.9,BA=5.52,STAT.b=11.0
28/09/2020,16:07:56,TEMP=18.5,BA=5.52,STAT.A,ExtBa=13.90
28/09/2020,16:09:28,TEMP=18.8,BA=5.52,STAT.b=11.0
28/09/2020,16:14:45,TEMP=18.5,BA=5.52,STAT.A,ExtBa=13.80
28/09/2020,16:16:17,TEMP=18.8,BA=5.52,STAT.b=11.0
28/09/2020,16:20:48,TEMP=18.3,BA=5.52,STAT.B,ExtBa=13.80
28/09/2020,16:22:20,TEMP=18.5,BA=5.52,STAT.b=11.0
28/09/2020,16:33:15,TEMP=17.8,BA=5.52,STAT.A,ExtBa=13.80
28/09/2020,16:34:48,TEMP=18.0,BA=5.52,STAT.b=11.0
28/09/2020,16:43:01,TEMP=17.4,BA=5.52,STAT.A,ExtBa=13.70
28/09/2020,16:44:33,TEMP=17.7,BA=5.52,STAT.b=11.0
28/09/2020,16:50:52,TEMP=17.3,BA=5.52,STAT.A,ExtBa=13.60
28/09/2020,16:52:24,TEMP=17.5,BA=5.52,STAT.b=11.0
28/09/2020,16:57:18,TEMP=17.0,BA=5.52,STAT.A,ExtBa=13.50
28/09/2020,16:58:51,TEMP=17.2,BA=5.52,STAT.b=11.0
28/09/2020,17:02:42,TEMP=16.8,BA=5.52,STAT.A,ExtBa=13.40
28/09/2020,17:04:15,TEMP=17.0,BA=5.52,STAT.b=11.0
28/09/2020,17:07:19,TEMP=16.6,BA=5.52,STAT.A,ExtBa=13.30
28/09/2020,17:08:52,TEMP=16.8,BA=5.52,STAT.b=11.0